Bookmark and Share
Track history (hours):
 

Emmanuel Tomasos

Last reported at 2014-Apr-16 17:25 UTC. Time now 2014-Apr-17 03:50 UTC.
Position N 55°50' E 016°59'.

Length 181 m; draft 6.8 m.

Type: Tanker. MMSI: 311459000.

NotesDate/timePositionNaut miles runAvg speedWind from/ knotsBaromVisibWave heightAir tempDewpointWater temp
2014-Apr-16 17:25N 55°50' E 016°59'1313.9
2014-Apr-16 16:29N 55°47' E 016°37'1913.9
2014-Apr-16 15:07N 55°42' E 016°04'814.0
2014-Apr-16 14:33N 55°40' E 015°51'1414.0
2014-Apr-16 13:33N 55°36' E 015°27'1413.7
2014-Apr-16 12:33N 55°30' E 015°05'1413.9
2014-Apr-16 11:33N 55°25' E 014°43'1413.6
2014-Apr-16 10:34N 55°15' E 014°26'1313.1
2014-Apr-16 09:33N 55°11' E 014°04'1313.4
2014-Apr-16 08:33N 55°12' E 013°41'1413.5
2014-Apr-16 07:33N 55°13' E 013°17'1413.5
2014-Apr-16 06:33N 55°14' E 012°54'1211.6
2014-Apr-16 05:33N 55°22' E 012°38'1212.0
2014-Apr-16 04:33N 55°33' E 012°42'1111.4
2014-Apr-16 03:33N 55°45' E 012°41'1313.2
2014-Apr-16 02:33N 55°58' E 012°38'1211.8
2014-Apr-16 01:34N 56°08' E 012°28'1413.7
2014-Apr-16 00:33N 56°16' E 012°08'1312.9
2014-Apr-15 23:33N 56°28' E 011°59'1414.0
2014-Apr-15 22:33N 56°42' E 011°54'1413.8
2014-Apr-15 21:32N 56°55' E 011°46'1313.6
2014-Apr-15 20:33N 57°08' E 011°37'1413.9
2014-Apr-15 19:34N 57°21' E 011°29'1313.3
2014-Apr-15 18:33N 57°32' E 011°15'1413.5
2014-Apr-15 17:34N 57°41' E 010°57'1313.0
2014-Apr-15 16:32N 57°49' E 010°37'1313.3
2014-Apr-15 15:33N 57°49' E 010°12'9911.0
2014-Apr-15 06:33N 57°05' E 007°27'370 9.9
2014-Apr-13 17:09N 51°39' E 002°26'813.3
2014-Apr-13 16:33N 51°33' E 002°18'1313.6
2014-Apr-13 15:33N 51°23' E 002°03'1413.9
2014-Apr-13 14:34N 51°13' E 001°49'1414.2
2014-Apr-13 13:34N 51°01' E 001°36'1514.7
2014-Apr-13 12:34N 50°49' E 001°24'1414.1
2014-Apr-13 11:33N 50°37' E 001°11'1513.7
2014-Apr-13 10:27N 50°29' E 000°51'1314.1
2014-Apr-13 09:30N 50°25' E 000°31'4815.5
2014-Apr-13 06:25N 50°13' W 000°41'1416.1
2014-Apr-13 05:34N 50°09' W 001°02'  
2014-Apr-08 17:16N 46°03' W 001°45'6 8.8
2014-Apr-08 16:33N 46°08' W 001°40'3 0.1
2014-Apr-07 21:33N 46°07' W 001°36'1212.5
2014-Apr-07 20:33N 46°12' W 001°53'1312.9
2014-Apr-07 19:33N 46°19' W 002°08'  

Dump ship's entire track history

sailing weather and tide predictions

Emmanuel Tomasos — C6SS7 — position and weather